Time,TemperatureF,DewpointF,PressureIn,WindDirection,WindDirectionDegrees,WindSpeedMPH,WindSpeedGustMPH,Humidity,HourlyPrecipIn,Conditions,Clouds,dailyrainin,SoftwareType,DateUTC
2013-06-12 00:02:00,46.4,37.1,29.98,North,355,1.1,0.0,70,0.00,FEW,,0.00,WeatherDisplay:10.37,2013-06-12 07:02:00,
2013-06-12 00:07:00,46.1,39.0,29.98,North,355,3.5,3.5,76,0.00,FEW,,0.00,WeatherDisplay:10.37,2013-06-12 07:07:00,
2013-06-12 00:12:00,45.6,38.5,29.99,North,355,0.0,0.0,76,0.00,FEW,,0.00,WeatherDisplay:10.37,2013-06-12 07:12:00,
2013-06-12 00:17:00,45.7,37.2,29.99,North,355,1.1,0.0,72,0.00,FEW,,0.00,WeatherDisplay:10.37,2013-06-12 07:17:00,
2013-06-12 00:22:00,45.9,36.3,29.98,North,355,3.0,3.0,69,0.00,FEW,,0.00,WeatherDisplay:10.37,2013-06-12 07:22:00,
2013-06-12 00:27:00,46.3,35.2,29.98,North,355,3.5,3.5,65,0.00,FEW,,0.00,WeatherDisplay:10.37,2013-06-12 07:27:00,
2013-06-12 00:32:00,46.5,35.7,29.97,North,355,3.5,3.5,66,0.00,FEW,,0.00,WeatherDisplay:10.37,2013-06-12 07:32:00,
2013-06-12 00:37:00,46.6,35.1,29.98,North,355,3.5,3.5,64,0.00,FEW,,0.00,WeatherDisplay:10.37,2013-06-12 07:37:00,
2013-06-12 00:42:00,46.4,34.9,29.97,North,355,3.5,3.5,64,0.00,FEW,,0.00,WeatherDisplay:10.37,2013-06-12 07:42:00,
2013-06-12 00:47:00,46.0,34.5,29.97,North,355,3.5,3.5,64,0.00,FEW,,0.00,WeatherDisplay:10.37,2013-06-12 07:47:00,
2013-06-12 00:52:00,45.6,33.7,29.97,North,355,3.5,3.5,63,0.00,FEW,,0.00,WeatherDisplay:10.37,2013-06-12 07:52:00,
2013-06-12 00:57:00,45.5,33.6,29.98,North,355,4.6,4.6,63,0.00,FEW,,0.00,WeatherDisplay:10.37,2013-06-12 07:57:00,
2013-06-12 01:02:00,45.4,33.5,29.99,North,355,3.5,3.5,63,0.00,CLR,,0.00,WeatherDisplay:10.37,2013-06-12 08:02:00,
2013-06-12 01:07:00,45.4,33.5,30.00,North,355,3.5,3.5,63,0.00,CLR,,0.00,WeatherDisplay:10.37,2013-06-12 08:07:00,
2013-06-12 01:12:00,45.5,33.6,30.00,North,355,2.3,0.0,63,0.00,CLR,,0.00,WeatherDisplay:10.37,2013-06-12 08:12:00,
2013-06-12 01:17:00,45.4,33.9,30.00,North,355,0.0,0.0,64,0.00,CLR,,0.00,WeatherDisplay:10.37,2013-06-12 08:17:00,
2013-06-12 01:22:00,45.0,33.5,30.00,North,355,3.5,3.5,64,0.00,CLR,,0.00,WeatherDisplay:10.37,2013-06-12 08:22:00,
2013-06-12 01:27:00,44.7,33.3,30.00,North,355,3.5,3.5,64,0.00,CLR,,0.00,WeatherDisplay:10.37,2013-06-12 08:27:00,
2013-06-12 01:33:00,44.9,33.5,30.00,North,355,3.5,3.5,64,0.00,CLR,,0.00,WeatherDisplay:10.37,2013-06-12 08:33:00,
2013-06-12 01:37:00,45.0,33.5,30.00,North,355,2.0,2.0,64,0.00,CLR,,0.00,WeatherDisplay:10.37,2013-06-12 08:37:00,
2013-06-12 01:43:00,45.0,33.2,30.00,North,355,4.0,4.0,63,0.00,CLR,,0.00,WeatherDisplay:10.37,2013-06-12 08:43:00,
2013-06-12 01:48:00,45.4,33.5,30.00,NW,318,4.6,4.6,63,0.00,CLR,,0.00,WeatherDisplay:10.37,2013-06-12 08:48:00,
2013-06-12 01:53:00,45.9,33.6,30.00,North,5,6.9,6.9,62,0.00,CLR,,0.00,WeatherDisplay:10.37,2013-06-12 08:53:00,
2013-06-12 01:58:00,46.2,33.5,29.99,NW,313,4.6,4.6,61,0.00,CLR,,0.00,WeatherDisplay:10.37,2013-06-12 08:58:00,
2013-06-12 02:03:00,46.4,33.7,30.00,NNW,328,3.5,3.5,61,0.00,BKN,,0.00,WeatherDisplay:10.37,2013-06-12 09:03:00,
2013-06-12 02:08:00,46.5,33.8,30.01,NNW,329,3.5,3.5,61,0.00,BKN,,0.00,WeatherDisplay:10.37,2013-06-12 09:08:00,
2013-06-12 02:13:00,46.5,33.8,30.00,North,360,3.5,3.5,61,0.00,BKN,,0.00,WeatherDisplay:10.37,2013-06-12 09:13:00,
2013-06-12 02:18:00,46.5,33.8,30.01,NW,326,4.6,4.6,61,0.00,BKN,,0.00,WeatherDisplay:10.37,2013-06-12 09:18:00,
2013-06-12 02:23:00,46.5,33.8,30.01,NNW,333,4.0,4.0,61,0.00,BKN,,0.00,WeatherDisplay:10.37,2013-06-12 09:23:00,
2013-06-12 02:28:00,46.5,34.2,30.01,NW,324,4.6,4.6,62,0.00,BKN,,0.00,WeatherDisplay:10.37,2013-06-12 09:28:00,
2013-06-12 02:33:00,46.5,34.2,30.01,NNW,340,5.0,5.0,62,0.00,BKN,,0.00,WeatherDisplay:10.37,2013-06-12 09:33:00,
2013-06-12 02:38:00,46.5,34.6,30.01,NNW,344,4.6,4.6,63,0.00,BKN,,0.00,WeatherDisplay:10.37,2013-06-12 09:38:00,
2013-06-12 02:43:00,46.4,34.5,30.01,NNW,336,3.5,3.5,63,0.00,BKN,,0.00,WeatherDisplay:10.37,2013-06-12 09:43:00,
2013-06-12 02:48:00,46.3,34.4,30.01,NNW,336,3.5,3.5,63,0.00,BKN,,0.00,WeatherDisplay:10.37,2013-06-12 09:48:00,
2013-06-12 02:53:00,46.3,34.8,30.00,NNW,336,2.3,2.3,64,0.00,BKN,,0.00,WeatherDisplay:10.37,2013-06-12 09:53:00,
2013-06-12 02:58:00,46.2,34.7,30.01,NNW,336,0.0,0.0,64,0.00,BKN,,0.00,WeatherDisplay:10.37,2013-06-12 09:58:00,
2013-06-12 03:03:00,46.1,35.0,30.00,NNW,336,0.0,0.0,65,0.00,BKN,,0.00,WeatherDisplay:10.37,2013-06-12 10:03:00,
2013-06-12 03:08:00,46.1,35.0,30.00,NNW,336,2.3,2.3,65,0.00,BKN,,0.00,WeatherDisplay:10.37,2013-06-12 10:08:00,
2013-06-12 03:13:00,46.1,35.4,29.99,NNW,336,0.0,0.0,66,0.00,BKN,,0.00,WeatherDisplay:10.37,2013-06-12 10:13:00,
2013-06-12 03:18:00,46.0,34.9,29.99,NNW,336,2.3,2.3,65,0.00,BKN,,0.00,WeatherDisplay:10.37,2013-06-12 10:18:00,
2013-06-12 03:23:00,46.0,34.5,30.00,NNW,336,0.0,0.0,64,0.00,CLR,,0.00,WeatherDisplay:10.37,2013-06-12 10:23:00,
2013-06-12 03:28:00,46.1,35.0,30.00,NNW,336,0.0,0.0,65,0.00,BKN,,0.00,WeatherDisplay:10.37,2013-06-12 10:28:00,
2013-06-12 03:33:00,46.1,35.4,29.99,NNW,336,2.3,2.3,66,0.00,BKN,,0.00,WeatherDisplay:10.37,2013-06-12 10:33:00,
2013-06-12 03:38:00,46.1,36.1,30.00,NNW,336,1.1,1.1,68,0.00,BKN,,0.00,WeatherDisplay:10.37,2013-06-12 10:38:00,
2013-06-12 03:43:00,46.0,36.0,29.99,NNW,336,5.0,5.0,68,0.00,BKN,,0.00,WeatherDisplay:10.37,2013-06-12 10:43:00,
2013-06-12 03:49:00,45.9,36.7,29.98,NNW,336,1.1,1.1,70,0.00,BKN,,0.00,WeatherDisplay:10.37,2013-06-12 10:49:00,
2013-06-12 03:54:00,45.8,36.9,29.98,NNW,336,2.3,2.3,71,0.00,BKN,,0.00,WeatherDisplay:10.37,2013-06-12 10:54:00,
2013-06-12 03:59:00,45.6,37.4,29.98,NNW,336,2.3,2.3,73,0.00,BKN,,0.00,WeatherDisplay:10.37,2013-06-12 10:59:00,
2013-06-12 04:04:00,45.4,37.6,29.98,NNW,336,1.1,1.1,74,0.00,BKN,,0.00,WeatherDisplay:10.37,2013-06-12 11:04:00,
2013-06-12 04:09:00,45.8,36.9,29.98,NNW,336,0.0,1.5,71,0.00,BKN,,0.00,WeatherDisplay:10.37,2013-06-12 11:09:00,
2013-06-12 04:14:00,45.8,36.9,29.98,NNW,336,0.0,1.5,71,0.00,BKN,,0.00,WeatherDisplay:10.37,2013-06-12 11:14:00,
2013-06-12 04:19:00,45.8,36.9,29.98,NNW,336,0.0,1.5,71,0.00,BKN,,0.00,WeatherDisplay:10.37,2013-06-12 11:19:00,
2013-06-12 04:24:00,45.8,36.9,29.98,NNW,336,0.0,1.5,71,0.00,BKN,,0.00,WeatherDisplay:10.37,2013-06-12 11:24:00,
2013-06-12 04:29:00,44.9,37.8,29.99,NNW,336,0.0,0.0,76,0.00,BKN,,0.00,WeatherDisplay:10.37,2013-06-12 11:29:00,
2013-06-12 04:34:00,44.8,38.7,29.99,NNW,336,2.3,2.3,79,0.00,BKN,,0.00,WeatherDisplay:10.37,2013-06-12 11:34:00,
2013-06-12 04:39:00,44.7,38.9,29.99,NNW,336,0.0,0.0,80,0.00,BKN,,0.00,WeatherDisplay:10.37,2013-06-12 11:39:00,
2013-06-12 04:44:00,44.9,37.8,29.99,NNW,336,0.0,0.0,76,0.00,BKN,,0.00,WeatherDisplay:10.37,2013-06-12 11:44:00,
2013-06-12 04:49:00,44.9,37.8,29.99,NNW,336,0.0,0.0,76,0.00,BKN,,0.00,WeatherDisplay:10.37,2013-06-12 11:49:00,
2013-06-12 04:54:00,44.9,37.8,29.99,NNW,336,0.0,0.0,76,0.00,BKN,,0.00,WeatherDisplay:10.37,2013-06-12 11:54:00,
2013-06-12 04:59:00,44.4,38.6,30.00,NNW,336,0.0,0.0,80,0.00,BKN,,0.00,WeatherDisplay:10.37,2013-06-12 11:59:00,
2013-06-12 05:04:00,44.4,38.6,30.01,NNW,336,0.0,0.0,80,0.00,OVC,,0.00,WeatherDisplay:10.37,2013-06-12 12:04:00,
2013-06-12 05:09:00,44.9,37.8,29.99,NNW,336,0.0,0.0,76,0.00,OVC,,0.00,WeatherDisplay:10.37,2013-06-12 12:09:00,
2013-06-12 05:14:00,44.9,37.8,29.99,NNW,336,0.0,0.0,76,0.00,OVC,,0.00,WeatherDisplay:10.37,2013-06-12 12:14:00,
2013-06-12 05:19:00,44.6,38.5,30.00,NNW,336,3.5,3.5,79,0.00,OVC,,0.00,WeatherDisplay:10.37,2013-06-12 12:19:00,
2013-06-12 05:24:00,44.5,38.7,30.00,NNW,336,0.0,0.1,80,0.00,OVC,,0.00,WeatherDisplay:10.37,2013-06-12 12:24:00,
2013-06-12 05:29:00,44.8,38.4,30.01,NNW,332,0.0,0.0,78,0.00,OVC,,0.00,WeatherDisplay:10.37,2013-06-12 12:29:00,
2013-06-12 05:34:00,44.8,38.0,30.01,NNW,331,0.0,0.2,77,0.00,OVC,,0.00,WeatherDisplay:10.37,2013-06-12 12:34:00,
2013-06-12 05:39:00,44.9,38.5,30.01,NNW,332,1.1,0.0,78,0.00,OVC,,0.00,WeatherDisplay:10.37,2013-06-12 12:39:00,
2013-06-12 05:44:00,44.9,38.5,30.01,NNW,331,1.1,1.1,78,0.00,OVC,,0.00,WeatherDisplay:10.37,2013-06-12 12:44:00,
2013-06-12 05:49:00,45.0,38.2,30.00,NNW,331,3.5,3.5,77,0.00,OVC,,0.00,WeatherDisplay:10.37,2013-06-12 12:49:00,
2013-06-12 05:54:00,44.9,38.5,30.01,NNW,331,1.1,1.1,78,0.00,OVC,,0.00,WeatherDisplay:10.37,2013-06-12 12:54:00,
2013-06-12 05:59:00,45.2,38.4,30.02,NNW,329,5.8,5.8,77,0.00,OVC,,0.00,WeatherDisplay:10.37,2013-06-12 12:59:00,
2013-06-12 06:04:00,45.3,38.5,30.02,NW,305,3.5,3.5,77,0.00,BKN,,0.00,WeatherDisplay:10.37,2013-06-12 13:04:00,
2013-06-12 06:09:00,45.2,38.4,30.02,NW,305,3.5,3.5,77,0.00,BKN,,0.00,WeatherDisplay:10.37,2013-06-12 13:09:00,
2013-06-12 06:14:00,45.4,38.6,30.02,NW,313,3.5,3.5,77,0.00,BKN,,0.00,WeatherDisplay:10.37,2013-06-12 13:14:00,
2013-06-12 06:19:00,45.4,38.3,30.02,NW,313,3.5,3.5,76,0.00,BKN,,0.00,WeatherDisplay:10.37,2013-06-12 13:19:00,
2013-06-12 06:24:00,45.5,38.7,30.02,NW,313,2.3,2.3,77,0.00,BKN,,0.00,WeatherDisplay:10.37,2013-06-12 13:24:00,
2013-06-12 06:29:00,45.4,38.6,30.02,NW,313,2.3,2.6,77,0.00,BKN,,0.00,WeatherDisplay:10.37,2013-06-12 13:29:00,
2013-06-12 06:34:00,45.4,38.6,30.02,NW,313,2.3,2.6,77,0.00,BKN,,0.00,WeatherDisplay:10.37,2013-06-12 13:34:00,
2013-06-12 06:39:00,45.4,38.6,30.02,NW,313,2.3,2.6,77,0.00,BKN,,0.00,WeatherDisplay:10.37,2013-06-12 13:39:00,
2013-06-12 06:44:00,45.4,38.6,30.02,NW,313,2.3,2.6,77,0.00,BKN,,0.00,WeatherDisplay:10.37,2013-06-12 13:44:00,
2013-06-12 06:49:00,46.1,39.3,30.03,NW,309,1.1,1.1,77,0.00,BKN,,0.00,WeatherDisplay:10.37,2013-06-12 13:49:00,
2013-06-12 06:54:00,46.4,39.2,30.03,NE,35,1.1,1.1,76,0.00,BKN,,0.00,WeatherDisplay:10.37,2013-06-12 13:54:00,
2013-06-12 07:00:00,45.4,38.6,30.02,NW,313,2.3,2.6,77,0.00,BKN,,0.00,WeatherDisplay:10.37,2013-06-12 14:00:00,
2013-06-12 07:05:00,45.4,38.6,30.02,NW,313,2.3,2.6,77,0.00,BKN,,0.00,WeatherDisplay:10.37,2013-06-12 14:05:00,
2013-06-12 07:10:00,45.4,38.6,30.02,NW,313,2.3,2.6,77,0.00,BKN,,0.00,WeatherDisplay:10.37,2013-06-12 14:10:00,
2013-06-12 07:15:00,45.4,38.6,30.02,NW,313,2.3,2.6,77,0.00,BKN,,0.00,WeatherDisplay:10.37,2013-06-12 14:15:00,
2013-06-12 07:20:00,45.4,38.6,30.02,NW,313,2.3,2.6,77,0.00,BKN,,0.00,WeatherDisplay:10.37,2013-06-12 14:20:00,
2013-06-12 07:25:00,47.2,39.7,30.03,NW,323,3.5,3.5,75,0.00,BKN,,0.00,WeatherDisplay:10.37,2013-06-12 14:25:00,
2013-06-12 07:30:00,47.8,39.6,30.03,NW,323,2.3,2.3,73,0.00,BKN,,0.00,WeatherDisplay:10.37,2013-06-12 14:30:00,
2013-06-12 07:35:00,48.3,39.7,30.02,NW,306,6.9,6.9,72,0.00,BKN,,0.00,WeatherDisplay:10.37,2013-06-12 14:35:00,
2013-06-12 07:40:00,48.5,39.9,30.02,NNW,334,6.0,6.0,72,0.00,BKN,,0.00,WeatherDisplay:10.37,2013-06-12 14:40:00,
2013-06-12 07:45:00,49.2,40.2,30.02,NNW,329,3.5,3.5,71,0.00,BKN,,0.00,WeatherDisplay:10.37,2013-06-12 14:45:00,
2013-06-12 07:50:00,50.4,41.3,30.02,North,355,6.9,6.9,71,0.00,BKN,,0.00,WeatherDisplay:10.37,2013-06-12 14:50:00,
2013-06-12 07:55:00,51.3,40.3,30.01,NNW,328,4.6,4.6,66,0.00,BKN,,0.00,WeatherDisplay:10.37,2013-06-12 14:55:00,
2013-06-12 08:00:00,51.1,39.7,30.03,NNW,327,10.4,10.4,65,0.00,BKN,,0.00,WeatherDisplay:10.37,2013-06-12 15:00:00,
2013-06-12 08:05:00,50.8,40.2,30.03,NW,322,4.0,4.0,67,0.00,CLR,,0.00,WeatherDisplay:10.37,2013-06-12 15:05:00,
2013-06-12 08:10:00,50.5,39.6,30.03,WNW,302,5.8,5.8,66,0.00,CLR,,0.00,WeatherDisplay:10.37,2013-06-12 15:10:00,
2013-06-12 08:15:00,51.0,40.8,30.03,NW,306,5.8,5.8,68,0.00,CLR,,0.00,WeatherDisplay:10.37,2013-06-12 15:15:00,
2013-06-12 08:20:00,52.0,40.2,30.02,North,9,9.2,9.2,64,0.00,CLR,,0.00,WeatherDisplay:10.37,2013-06-12 15:20:00,
2013-06-12 08:25:00,52.1,40.7,30.02,NW,324,5.8,5.8,65,0.00,CLR,,0.00,WeatherDisplay:10.37,2013-06-12 15:25:00,
2013-06-12 08:30:00,52.3,40.9,30.02,NW,315,6.9,6.9,65,0.00,CLR,,0.00,WeatherDisplay:10.37,2013-06-12 15:30:00,
2013-06-12 08:35:00,52.9,41.0,30.02,NNW,344,11.0,11.0,64,0.00,CLR,,0.00,WeatherDisplay:10.37,2013-06-12 15:35:00,
2013-06-12 08:40:00,52.7,40.0,30.02,North,360,8.1,8.1,62,0.00,CLR,,0.00,WeatherDisplay:10.37,2013-06-12 15:40:00,
2013-06-12 08:45:00,52.2,40.0,30.02,NNW,340,11.5,11.5,63,0.00,CLR,,0.00,WeatherDisplay:10.37,2013-06-12 15:45:00,
2013-06-12 08:50:00,52.2,41.6,30.02,NW,322,10.4,10.4,67,0.00,CLR,,0.00,WeatherDisplay:10.37,2013-06-12 15:50:00,
2013-06-12 08:55:00,52.7,41.3,30.02,NW,306,9.0,9.0,65,0.00,CLR,,0.00,WeatherDisplay:10.37,2013-06-12 15:55:00,
2013-06-12 09:00:00,53.1,41.2,30.02,WNW,298,10.0,10.0,64,0.00,CLR,,0.00,WeatherDisplay:10.37,2013-06-12 16:00:00,
2013-06-12 09:05:00,53.6,42.5,30.02,NW,319,3.5,3.5,66,0.00,CLR,,0.00,WeatherDisplay:10.37,2013-06-12 16:05:00,
2013-06-12 09:10:00,54.3,42.8,30.02,NNW,348,5.8,5.8,65,0.00,CLR,,0.00,WeatherDisplay:10.37,2013-06-12 16:10:00,
2013-06-12 09:15:00,55.0,42.2,30.01,NNW,341,5.8,5.8,62,0.00,CLR,,0.00,WeatherDisplay:10.37,2013-06-12 16:15:00,
2013-06-12 09:20:00,55.3,42.5,30.01,NNW,334,10.4,10.4,62,0.00,CLR,,0.00,WeatherDisplay:10.37,2013-06-12 16:20:00,
2013-06-12 09:25:00,55.3,42.9,30.01,NW,324,6.9,6.9,63,0.00,CLR,,0.00,WeatherDisplay:10.37,2013-06-12 16:25:00,
2013-06-12 09:30:00,55.3,43.3,30.01,NW,313,3.5,3.5,64,0.00,CLR,,0.00,WeatherDisplay:10.37,2013-06-12 16:30:00,
2013-06-12 09:35:00,55.0,41.4,30.00,NW,310,11.5,11.5,60,0.00,CLR,,0.00,WeatherDisplay:10.37,2013-06-12 16:35:00,
2013-06-12 09:40:00,54.8,41.2,30.00,NNW,342,9.2,9.2,60,0.00,CLR,,0.00,WeatherDisplay:10.37,2013-06-12 16:40:00,
2013-06-12 09:45:00,55.5,43.1,30.00,NW,315,4.6,4.6,63,0.00,CLR,,0.00,WeatherDisplay:10.37,2013-06-12 16:45:00,
2013-06-12 09:50:00,56.2,44.2,30.00,NW,325,2.3,2.3,64,0.00,CLR,,0.00,WeatherDisplay:10.37,2013-06-12 16:50:00,
2013-06-12 09:55:00,56.5,42.8,29.99,NNE,32,4.6,4.6,60,0.00,CLR,,0.00,WeatherDisplay:10.37,2013-06-12 16:55:00,
2013-06-12 10:00:00,56.4,43.1,30.00,West,280,3.5,3.5,61,0.00,CLR,,0.00,WeatherDisplay:10.37,2013-06-12 17:00:00,
2013-06-12 10:05:00,56.3,43.4,30.01,NW,326,4.6,4.6,62,0.00,FEW,,0.00,WeatherDisplay:10.37,2013-06-12 17:05:00,
2013-06-12 10:10:00,56.8,43.1,30.00,NW,304,5.0,5.0,60,0.00,FEW,,0.00,WeatherDisplay:10.37,2013-06-12 17:10:00,
2013-06-12 10:15:00,57.0,43.7,30.01,NNW,333,6.9,6.9,61,0.00,FEW,,0.00,WeatherDisplay:10.37,2013-06-12 17:15:00,
2013-06-12 10:20:00,57.2,43.0,30.01,NW,324,3.5,3.5,59,0.00,FEW,,0.00,WeatherDisplay:10.37,2013-06-12 17:20:00,
2013-06-12 10:25:00,56.9,41.8,30.01,NW,310,4.0,4.0,57,0.00,FEW,,0.00,WeatherDisplay:10.37,2013-06-12 17:25:00,
2013-06-12 10:30:00,57.0,42.8,30.01,North,355,10.0,10.0,59,0.00,FEW,,0.00,WeatherDisplay:10.37,2013-06-12 17:30:00,
2013-06-12 10:35:00,57.5,41.4,30.01,NW,325,9.2,9.2,55,0.00,FEW,,0.00,WeatherDisplay:10.37,2013-06-12 17:35:00,
2013-06-12 10:40:00,57.4,42.3,30.01,NW,322,9.0,9.0,57,0.00,FEW,,0.00,WeatherDisplay:10.37,2013-06-12 17:40:00,
2013-06-12 10:45:00,57.2,41.6,30.01,West,272,6.9,6.9,56,0.00,FEW,,0.00,WeatherDisplay:10.37,2013-06-12 17:45:00,
2013-06-12 10:50:00,57.1,42.5,30.01,WNW,297,5.8,5.8,58,0.00,FEW,,0.00,WeatherDisplay:10.37,2013-06-12 17:50:00,
2013-06-12 10:55:00,57.7,43.9,30.01,NNW,338,5.8,5.8,60,0.00,FEW,,0.00,WeatherDisplay:10.37,2013-06-12 17:55:00,
2013-06-12 11:00:00,57.8,43.6,30.01,NNE,31,10.4,10.4,59,0.00,FEW,,0.00,WeatherDisplay:10.37,2013-06-12 18:00:00,
2013-06-12 11:05:00,58.4,43.7,30.02,NNW,345,4.6,4.6,58,0.00,CLR,,0.00,WeatherDisplay:10.37,2013-06-12 18:05:00,
2013-06-12 11:10:00,58.6,42.9,30.01,West,273,9.2,9.2,56,0.00,CLR,,0.00,WeatherDisplay:10.37,2013-06-12 18:10:00,
2013-06-12 11:15:00,58.8,42.2,30.01,WNW,291,9.2,9.2,54,0.00,CLR,,0.00,WeatherDisplay:10.37,2013-06-12 18:15:00,
2013-06-12 11:20:00,58.8,42.2,30.01,NW,323,4.6,4.6,54,0.00,CLR,,0.00,WeatherDisplay:10.37,2013-06-12 18:20:00,
2013-06-12 11:25:00,59.0,44.2,30.00,North,9,6.9,6.9,58,0.00,CLR,,0.00,WeatherDisplay:10.37,2013-06-12 18:25:00,
2013-06-12 11:30:00,59.5,43.3,30.00,NNW,336,4.6,5.2,55,0.00,CLR,,0.00,WeatherDisplay:10.37,2013-06-12 18:30:00,
2013-06-12 11:35:00,59.6,42.9,30.01,NNW,338,8.1,8.1,54,0.00,CLR,,0.00,WeatherDisplay:10.37,2013-06-12 18:35:00,
2013-06-12 11:40:00,59.6,42.9,30.01,NW,311,10.4,10.4,54,0.00,CLR,,0.00,WeatherDisplay:10.37,2013-06-12 18:40:00,
2013-06-12 11:45:00,60.0,43.8,30.01,NNW,348,10.4,10.4,55,0.00,CLR,,0.00,WeatherDisplay:10.37,2013-06-12 18:45:00,
2013-06-12 11:50:00,59.2,42.6,30.01,West,280,5.8,5.8,54,0.00,CLR,,0.00,WeatherDisplay:10.37,2013-06-12 18:50:00,
2013-06-12 11:55:00,59.0,42.8,30.01,NW,313,10.4,10.4,55,0.00,CLR,,0.00,WeatherDisplay:10.37,2013-06-12 18:55:00,
2013-06-12 12:00:00,59.0,44.7,30.01,WSW,257,4.6,4.6,59,0.00,BKN,,0.00,WeatherDisplay:10.37,2013-06-12 19:00:00,
2013-06-12 12:06:00,59.2,44.9,30.01,NW,321,5.8,5.8,59,0.00,BKN,,0.00,WeatherDisplay:10.37,2013-06-12 19:06:00,
2013-06-12 12:11:00,60.5,45.2,30.00,North,11,4.6,4.6,57,0.00,BKN,,0.00,WeatherDisplay:10.37,2013-06-12 19:11:00,
2013-06-12 12:16:00,60.5,43.8,30.00,NW,319,16.1,16.1,54,0.00,BKN,,0.00,WeatherDisplay:10.37,2013-06-12 19:16:00,
2013-06-12 12:21:00,59.9,43.7,30.00,NNW,346,10.4,10.4,55,0.00,BKN,,0.00,WeatherDisplay:10.37,2013-06-12 19:21:00,
2013-06-12 12:26:00,60.1,45.3,30.00,North,11,11.5,11.5,58,0.00,BKN,,0.00,WeatherDisplay:10.37,2013-06-12 19:26:00,
2013-06-12 12:31:00,60.4,44.2,30.00,NW,318,11.0,11.0,55,0.00,BKN,,0.00,WeatherDisplay:10.37,2013-06-12 19:31:00,
2013-06-12 12:36:00,60.0,42.8,30.00,NW,316,8.1,8.1,53,0.00,BKN,,0.00,WeatherDisplay:10.37,2013-06-12 19:36:00,
2013-06-12 12:41:00,59.4,43.2,30.01,NW,319,6.9,6.9,55,0.00,BKN,,0.00,WeatherDisplay:10.37,2013-06-12 19:41:00,
2013-06-12 12:46:00,59.0,42.4,30.01,WNW,303,6.9,6.9,54,0.00,BKN,,0.00,WeatherDisplay:10.37,2013-06-12 19:46:00,
2013-06-12 12:51:00,58.7,42.6,30.01,NNW,341,9.2,9.2,55,0.00,BKN,,0.00,WeatherDisplay:10.37,2013-06-12 19:51:00,
2013-06-12 12:56:00,58.7,43.0,30.01,WNW,299,8.1,8.1,56,0.00,BKN,,0.00,WeatherDisplay:10.37,2013-06-12 19:56:00,
2013-06-12 13:01:00,58.8,42.2,30.01,NE,38,9.2,9.2,54,0.00,BKN,,0.00,WeatherDisplay:10.37,2013-06-12 20:01:00,
2013-06-12 13:06:00,59.0,43.3,30.01,NW,317,10.4,10.4,56,0.00,BKN,,0.00,WeatherDisplay:10.37,2013-06-12 20:06:00,
2013-06-12 13:11:00,59.6,44.8,30.00,WNW,294,4.0,4.0,58,0.00,BKN,,0.00,WeatherDisplay:10.37,2013-06-12 20:11:00,
2013-06-12 13:16:00,58.7,42.6,30.01,WNW,283,11.5,11.5,55,0.00,BKN,,0.00,WeatherDisplay:10.37,2013-06-12 20:16:00,
2013-06-12 13:21:00,59.5,46.0,30.00,NW,315,4.0,4.0,61,0.00,BKN,,0.00,WeatherDisplay:10.37,2013-06-12 20:21:00,
2013-06-12 13:26:00,60.4,42.7,30.00,NW,315,12.7,12.7,52,0.00,BKN,,0.00,WeatherDisplay:10.37,2013-06-12 20:26:00,
2013-06-12 13:31:00,60.7,47.2,30.00,NNW,329,3.5,3.5,61,0.00,BKN,,0.00,WeatherDisplay:10.37,2013-06-12 20:31:00,
2013-06-12 13:36:00,61.0,44.7,29.99,NNW,330,4.6,4.6,55,0.00,BKN,,0.00,WeatherDisplay:10.37,2013-06-12 20:36:00,
2013-06-12 13:41:00,60.4,42.2,30.00,NNW,338,3.5,3.5,51,0.00,BKN,,0.00,WeatherDisplay:10.37,2013-06-12 20:41:00,
2013-06-12 13:46:00,59.6,42.9,29.99,NNW,327,4.6,4.6,54,0.00,BKN,,0.00,WeatherDisplay:10.37,2013-06-12 20:46:00,
2013-06-12 13:51:00,59.0,43.3,30.00,NW,319,6.0,6.0,56,0.00,BKN,,0.00,WeatherDisplay:10.37,2013-06-12 20:51:00,
2013-06-12 13:56:00,59.0,42.8,30.00,NNW,334,4.6,4.6,55,0.00,BKN,,0.00,WeatherDisplay:10.37,2013-06-12 20:56:00,
2013-06-12 14:01:00,59.4,44.2,30.00,NNW,346,3.5,3.5,57,0.00,CLR,,0.00,WeatherDisplay:10.37,2013-06-12 21:01:00,
2013-06-12 14:06:00,59.9,43.7,29.99,West,267,5.8,5.8,55,0.00,CLR,,0.00,WeatherDisplay:10.37,2013-06-12 21:06:00,
2013-06-12 14:11:00,60.3,44.5,29.99,WNW,290,10.4,10.4,56,0.00,CLR,,0.00,WeatherDisplay:10.37,2013-06-12 21:11:00,
2013-06-12 14:16:00,60.5,44.2,29.99,NNW,342,4.6,4.6,55,0.00,CLR,,0.00,WeatherDisplay:10.37,2013-06-12 21:16:00,
2013-06-12 14:21:00,60.9,44.6,29.99,NW,307,8.1,8.1,55,0.00,CLR,,0.00,WeatherDisplay:10.37,2013-06-12 21:21:00,
2013-06-12 14:26:00,61.1,44.8,29.98,WNW,300,5.8,5.8,55,0.00,CLR,,0.00,WeatherDisplay:10.37,2013-06-12 21:26:00,
2013-06-12 14:31:00,61.7,44.4,29.98,WNW,298,9.0,9.0,53,0.00,CLR,,0.00,WeatherDisplay:10.37,2013-06-12 21:31:00,
2013-06-12 14:36:00,62.5,44.1,29.98,NNW,333,6.9,6.9,51,0.00,CLR,,0.00,WeatherDisplay:10.37,2013-06-12 21:36:00,
2013-06-12 14:41:00,62.5,43.6,29.98,NW,321,11.5,11.5,50,0.00,CLR,,0.00,WeatherDisplay:10.37,2013-06-12 21:41:00,
2013-06-12 14:46:00,61.9,43.6,29.98,NW,311,11.0,11.0,51,0.00,CLR,,0.00,WeatherDisplay:10.37,2013-06-12 21:46:00,
2013-06-12 14:51:00,61.7,43.9,29.98,NW,326,5.8,5.8,52,0.00,CLR,,0.00,WeatherDisplay:10.37,2013-06-12 21:51:00,
2013-06-12 14:56:00,61.6,45.3,29.98,NW,322,11.5,11.5,55,0.00,CLR,,0.00,WeatherDisplay:10.37,2013-06-12 21:56:00,
2013-06-12 15:01:00,61.8,45.0,29.98,NNW,329,10.4,10.4,54,0.00,CLR,,0.00,WeatherDisplay:10.37,2013-06-12 22:01:00,
2013-06-12 15:06:00,62.0,43.7,29.98,NNW,336,6.9,6.9,51,0.00,CLR,,0.00,WeatherDisplay:10.37,2013-06-12 22:06:00,
2013-06-12 15:11:00,62.2,43.8,29.98,North,10,11.5,11.5,51,0.00,CLR,,0.00,WeatherDisplay:10.37,2013-06-12 22:11:00,
2013-06-12 15:16:00,61.7,42.9,29.98,North,10,18.4,18.4,50,0.00,CLR,,0.00,WeatherDisplay:10.37,2013-06-12 22:16:00,
2013-06-12 15:21:00,61.7,43.9,29.98,NW,312,6.9,6.9,52,0.00,CLR,,0.00,WeatherDisplay:10.37,2013-06-12 22:21:00,
2013-06-12 15:26:00,62.1,43.7,29.98,NW,306,10.4,10.4,51,0.00,CLR,,0.00,WeatherDisplay:10.37,2013-06-12 22:26:00,
2013-06-12 15:31:00,62.6,44.2,29.97,West,281,9.2,9.2,51,0.00,CLR,,0.00,WeatherDisplay:10.37,2013-06-12 22:31:00,
2013-06-12 15:36:00,62.8,43.3,29.97,NW,311,12.7,12.7,49,0.00,CLR,,0.00,WeatherDisplay:10.37,2013-06-12 22:36:00,
2013-06-12 15:41:00,62.5,43.1,29.98,WNW,294,10.4,10.4,49,0.00,CLR,,0.00,WeatherDisplay:10.37,2013-06-12 22:41:00,
2013-06-12 15:47:00,62.1,43.2,29.97,NW,317,12.7,12.7,50,0.00,CLR,,0.00,WeatherDisplay:10.37,2013-06-12 22:47:00,
2013-06-12 15:52:00,61.8,42.4,29.97,NW,324,11.5,11.5,49,0.00,CLR,,0.00,WeatherDisplay:10.37,2013-06-12 22:52:00,
2013-06-12 15:57:00,61.8,43.5,29.97,North,360,11.5,11.5,51,0.00,CLR,,0.00,WeatherDisplay:10.37,2013-06-12 22:57:00,
2013-06-12 16:02:00,62.0,43.7,29.98,North,11,3.5,3.5,51,0.00,SCT,,0.00,WeatherDisplay:10.37,2013-06-12 23:02:00,
2013-06-12 16:07:00,62.6,42.6,29.98,NW,320,11.5,11.5,48,0.00,SCT,,0.00,WeatherDisplay:10.37,2013-06-12 23:07:00,
2013-06-12 16:12:00,62.4,43.0,29.98,NNW,340,9.2,9.2,49,0.00,SCT,,0.00,WeatherDisplay:10.37,2013-06-12 23:12:00,
2013-06-12 16:17:00,62.3,42.9,29.98,NNE,26,9.2,9.2,49,0.00,SCT,,0.00,WeatherDisplay:10.37,2013-06-12 23:17:00,
2013-06-12 16:22:00,62.7,42.7,29.98,NNE,29,10.4,10.4,48,0.00,SCT,,0.00,WeatherDisplay:10.37,2013-06-12 23:22:00,
2013-06-12 16:27:00,62.8,42.8,29.98,NW,309,11.5,11.5,48,0.00,SCT,,0.00,WeatherDisplay:10.37,2013-06-12 23:27:00,
2013-06-12 16:32:00,62.3,42.9,29.98,WNW,291,11.5,11.5,49,0.00,SCT,,0.00,WeatherDisplay:10.37,2013-06-12 23:32:00,
2013-06-12 16:37:00,62.1,42.7,29.98,NW,305,11.5,11.5,49,0.00,SCT,,0.00,WeatherDisplay:10.37,2013-06-12 23:37:00,
2013-06-12 16:42:00,62.5,42.5,29.98,NW,308,16.1,16.1,48,0.00,SCT,,0.00,WeatherDisplay:10.37,2013-06-12 23:42:00,
2013-06-12 16:47:00,62.9,43.4,29.98,NNW,346,12.0,12.0,49,0.00,SCT,,0.00,WeatherDisplay:10.37,2013-06-12 23:47:00,
2013-06-12 16:52:00,63.0,43.0,29.98,NNW,344,8.1,8.1,48,0.00,SCT,,0.00,WeatherDisplay:10.37,2013-06-12 23:52:00,
2013-06-12 16:57:00,63.2,43.7,29.98,North,355,5.8,5.8,49,0.00,SCT,,0.00,WeatherDisplay:10.37,2013-06-12 23:57:00,
2013-06-12 17:02:00,63.4,43.9,29.97,NW,325,4.0,4.0,49,0.00,CLR,,0.00,WeatherDisplay:10.37,2013-06-13 00:02:00,
2013-06-12 17:07:00,63.2,43.2,29.96,NW,307,13.8,13.8,48,0.00,CLR,,0.00,WeatherDisplay:10.37,2013-06-13 00:07:00,
2013-06-12 17:12:00,62.5,42.5,29.97,NNW,341,6.9,6.9,48,0.00,CLR,,0.00,WeatherDisplay:10.37,2013-06-13 00:12:00,
2013-06-12 17:17:00,62.5,42.5,29.97,NNE,25,10.4,10.4,48,0.00,CLR,,0.00,WeatherDisplay:10.37,2013-06-13 00:17:00,
2013-06-12 17:22:00,62.7,42.7,29.97,NW,315,11.5,11.5,48,0.00,CLR,,0.00,WeatherDisplay:10.37,2013-06-13 00:22:00,
2013-06-12 17:27:00,61.4,41.5,29.97,NW,309,7.0,7.0,48,0.00,CLR,,0.00,WeatherDisplay:10.37,2013-06-13 00:27:00,
2013-06-12 17:32:00,60.1,40.9,29.98,NNW,341,9.2,9.2,49,0.00,CLR,,0.00,WeatherDisplay:10.37,2013-06-13 00:32:00,
2013-06-12 17:37:00,60.2,42.0,29.98,WNW,288,7.0,7.0,51,0.00,CLR,,0.00,WeatherDisplay:10.37,2013-06-13 00:37:00,
2013-06-12 17:42:00,61.0,42.2,29.97,NNW,329,11.5,11.5,50,0.00,CLR,,0.00,WeatherDisplay:10.37,2013-06-13 00:42:00,
2013-06-12 17:47:00,61.3,43.5,29.97,NE,44,3.5,3.5,52,0.00,CLR,,0.00,WeatherDisplay:10.37,2013-06-13 00:47:00,
2013-06-12 17:52:00,61.3,41.4,29.96,NNE,32,12.7,12.7,48,0.00,CLR,,0.00,WeatherDisplay:10.37,2013-06-13 00:52:00,
2013-06-12 17:57:00,60.7,41.9,29.97,NW,320,11.5,11.5,50,0.00,CLR,,0.00,WeatherDisplay:10.37,2013-06-13 00:57:00,
2013-06-12 18:02:00,61.0,41.7,29.95,WNW,293,10.4,10.4,49,0.00,FEW,,0.00,WeatherDisplay:10.37,2013-06-13 01:02:00,
2013-06-12 18:07:00,61.2,41.3,29.96,NNW,338,6.0,6.0,48,0.00,FEW,,0.00,WeatherDisplay:10.37,2013-06-13 01:07:00,
2013-06-12 18:12:00,61.0,41.7,29.95,NNW,346,10.0,10.0,49,0.00,FEW,,0.00,WeatherDisplay:10.37,2013-06-13 01:12:00,
2013-06-12 18:17:00,61.1,41.8,29.95,WNW,292,6.9,6.9,49,0.00,FEW,,0.00,WeatherDisplay:10.37,2013-06-13 01:17:00,
2013-06-12 18:22:00,60.9,41.6,29.94,North,10,5.8,5.8,49,0.00,FEW,,0.00,WeatherDisplay:10.37,2013-06-13 01:22:00,
2013-06-12 18:27:00,60.6,40.8,29.94,North,355,9.2,9.2,48,0.00,FEW,,0.00,WeatherDisplay:10.37,2013-06-13 01:27:00,
2013-06-12 18:32:00,60.2,40.4,29.95,NNW,345,8.1,8.1,48,0.00,FEW,,0.00,WeatherDisplay:10.37,2013-06-13 01:32:00,
2013-06-12 18:37:00,60.0,40.8,29.95,North,355,8.1,8.1,49,0.00,FEW,,0.00,WeatherDisplay:10.37,2013-06-13 01:37:00,
2013-06-12 18:42:00,59.7,41.0,29.96,North,355,9.2,9.2,50,0.00,FEW,,0.00,WeatherDisplay:10.37,2013-06-13 01:42:00,
2013-06-12 18:47:00,59.4,40.7,29.96,NE,41,5.8,5.8,50,0.00,FEW,,0.00,WeatherDisplay:10.37,2013-06-13 01:47:00,
2013-06-12 18:52:00,59.3,40.7,29.96,NW,318,10.4,10.4,50,0.00,FEW,,0.00,WeatherDisplay:10.37,2013-06-13 01:52:00,
2013-06-12 18:57:00,59.0,40.4,29.97,North,5,9.2,9.2,50,0.00,FEW,,0.00,WeatherDisplay:10.37,2013-06-13 01:57:00,
2013-06-12 19:02:00,58.9,40.8,29.95,North,5,3.5,3.6,51,0.00,CLR,,0.00,WeatherDisplay:10.37,2013-06-13 02:02:00,
2013-06-12 19:07:00,58.7,40.6,29.95,North,5,10.4,10.4,51,0.00,CLR,,0.00,WeatherDisplay:10.37,2013-06-13 02:07:00,
2013-06-12 19:12:00,59.0,41.4,29.95,NNE,14,3.5,3.5,52,0.00,CLR,,0.00,WeatherDisplay:10.37,2013-06-13 02:12:00,
2013-06-12 19:17:00,59.0,40.9,29.95,NNW,330,4.6,4.6,51,0.00,CLR,,0.00,WeatherDisplay:10.37,2013-06-13 02:17:00,
2013-06-12 19:22:00,59.0,41.4,29.95,NW,306,7.0,7.0,52,0.00,CLR,,0.00,WeatherDisplay:10.37,2013-06-13 02:22:00,
2013-06-12 19:27:00,58.5,40.9,29.95,NW,318,1.1,1.1,52,0.00,CLR,,0.00,WeatherDisplay:10.37,2013-06-13 02:27:00,
2013-06-12 19:32:00,58.1,41.0,29.96,NW,316,3.5,3.5,53,0.00,CLR,,0.00,WeatherDisplay:10.37,2013-06-13 02:32:00,
2013-06-12 19:37:00,57.9,40.9,29.97,NW,310,0.0,0.1,53,0.00,CLR,,0.00,WeatherDisplay:10.37,2013-06-13 02:37:00,
2013-06-12 19:42:00,57.8,40.8,29.97,WNW,297,4.0,4.0,53,0.00,CLR,,0.00,WeatherDisplay:10.37,2013-06-13 02:42:00,
2013-06-12 19:47:00,57.5,40.5,29.96,NNW,338,3.5,3.5,53,0.00,CLR,,0.00,WeatherDisplay:10.37,2013-06-13 02:47:00,
2013-06-12 19:52:00,57.2,40.2,29.96,NW,321,7.0,7.0,53,0.00,CLR,,0.00,WeatherDisplay:10.37,2013-06-13 02:52:00,
2013-06-12 19:57:00,57.0,40.5,29.95,NW,324,3.5,3.5,54,0.00,CLR,,0.00,WeatherDisplay:10.37,2013-06-13 02:57:00,
2013-06-12 20:02:00,56.7,40.2,29.95,NNW,333,3.5,3.5,54,0.00,FEW,,0.00,WeatherDisplay:10.37,2013-06-13 03:02:00,
2013-06-12 20:07:00,56.5,40.5,29.95,NW,317,2.3,2.3,55,0.00,FEW,,0.00,WeatherDisplay:10.37,2013-06-13 03:07:00,
2013-06-12 20:12:00,56.3,40.8,29.96,NW,323,2.3,2.3,56,0.00,FEW,,0.00,WeatherDisplay:10.37,2013-06-13 03:12:00,
2013-06-12 20:17:00,56.2,41.2,29.96,NW,323,2.3,2.3,57,0.00,FEW,,0.00,WeatherDisplay:10.37,2013-06-13 03:17:00,
2013-06-12 20:22:00,56.0,40.5,29.97,NW,323,2.3,0.0,56,0.00,FEW,,0.00,WeatherDisplay:10.37,2013-06-13 03:22:00,
2013-06-12 20:27:00,55.8,40.8,29.97,NW,323,0.0,0.0,57,0.00,FEW,,0.00,WeatherDisplay:10.37,2013-06-13 03:27:00,
2013-06-12 20:32:00,55.7,41.1,29.97,NW,323,0.0,0.0,58,0.00,FEW,,0.00,WeatherDisplay:10.37,2013-06-13 03:32:00,
2013-06-12 20:37:00,55.4,40.9,29.97,NW,323,1.1,0.0,58,0.00,FEW,,0.00,WeatherDisplay:10.37,2013-06-13 03:37:00,
2013-06-12 20:42:00,55.2,40.7,29.98,NW,323,0.0,0.3,58,0.00,FEW,,0.00,WeatherDisplay:10.37,2013-06-13 03:42:00,
2013-06-12 20:47:00,55.0,40.5,29.98,NW,323,0.0,0.5,58,0.00,FEW,,0.00,WeatherDisplay:10.37,2013-06-13 03:47:00,
2013-06-12 20:52:00,54.7,40.6,29.98,NW,323,3.5,0.0,59,0.00,FEW,,0.00,WeatherDisplay:10.37,2013-06-13 03:52:00,
2013-06-12 20:57:00,54.6,41.0,29.98,NW,323,0.0,0.0,60,0.00,FEW,,0.00,WeatherDisplay:10.37,2013-06-13 03:57:00,
2013-06-12 21:01:00,54.5,40.9,29.96,NW,323,0.0,0.0,60,0.00,BKN,,0.00,WeatherDisplay:10.37,2013-06-13 04:01:00,
2013-06-12 21:06:00,54.4,42.1,29.98,NW,323,0.0,0.0,63,0.00,BKN,,0.00,WeatherDisplay:10.37,2013-06-13 04:06:00,
2013-06-12 21:11:00,54.1,42.2,29.98,NW,323,0.0,0.0,64,0.00,BKN,,0.00,WeatherDisplay:10.37,2013-06-13 04:11:00,
2013-06-12 21:16:00,53.9,42.4,29.98,NW,323,0.0,0.0,65,0.00,BKN,,0.00,WeatherDisplay:10.37,2013-06-13 04:16:00,
2013-06-12 21:21:00,53.7,41.8,29.98,NW,323,0.0,0.0,64,0.00,BKN,,0.00,WeatherDisplay:10.37,2013-06-13 04:21:00,
2013-06-12 21:26:00,53.5,42.0,29.97,NW,323,0.0,0.0,65,0.00,BKN,,0.00,WeatherDisplay:10.37,2013-06-13 04:26:00,
2013-06-12 21:31:00,53.3,41.8,29.97,NW,323,0.0,0.0,65,0.00,BKN,,0.00,WeatherDisplay:10.37,2013-06-13 04:31:00,
2013-06-12 21:36:00,53.2,41.3,29.98,NW,323,0.0,0.0,64,0.00,BKN,,0.00,WeatherDisplay:10.37,2013-06-13 04:36:00,
2013-06-12 21:41:00,53.1,41.2,29.98,NW,323,0.0,0.0,64,0.00,BKN,,0.00,WeatherDisplay:10.37,2013-06-13 04:41:00,
2013-06-12 21:46:00,53.0,41.5,29.97,NW,323,3.5,3.5,65,0.00,BKN,,0.00,WeatherDisplay:10.37,2013-06-13 04:46:00,
2013-06-12 21:51:00,52.9,41.0,29.96,NW,323,3.5,3.5,64,0.00,BKN,,0.00,WeatherDisplay:10.37,2013-06-13 04:51:00,
2013-06-12 21:56:00,52.9,40.6,29.96,NW,323,3.5,3.5,63,0.00,BKN,,0.00,WeatherDisplay:10.37,2013-06-13 04:56:00,
2013-06-12 22:01:00,53.0,41.1,29.97,NW,323,0.0,0.0,64,0.00,BKN,,0.00,WeatherDisplay:10.37,2013-06-13 05:01:00,
2013-06-12 22:06:00,52.9,41.0,29.97,NW,323,1.0,1.0,64,0.00,BKN,,0.00,WeatherDisplay:10.37,2013-06-13 05:06:00,
2013-06-12 22:11:00,52.8,41.4,29.96,NW,323,0.0,0.0,65,0.00,BKN,,0.00,WeatherDisplay:10.37,2013-06-13 05:11:00,
2013-06-12 22:16:00,52.6,40.8,29.96,NW,323,1.2,1.2,64,0.00,BKN,,0.00,WeatherDisplay:10.37,2013-06-13 05:16:00,
2013-06-12 22:21:00,52.5,40.7,29.96,NW,323,0.0,0.0,64,0.00,BKN,,0.00,WeatherDisplay:10.37,2013-06-13 05:21:00,
2013-06-12 22:26:00,52.4,41.0,29.97,NW,323,1.2,0.0,65,0.00,BKN,,0.00,WeatherDisplay:10.37,2013-06-13 05:26:00,
2013-06-12 22:31:00,52.3,40.5,29.97,NW,323,1.2,1.2,64,0.00,BKN,,0.00,WeatherDisplay:10.37,2013-06-13 05:31:00,
2013-06-12 22:36:00,52.3,40.5,29.97,NW,323,0.0,0.0,64,0.00,BKN,,0.00,WeatherDisplay:10.37,2013-06-13 05:36:00,
2013-06-12 22:41:00,52.2,40.0,29.97,NW,323,0.0,0.0,63,0.00,BKN,,0.00,WeatherDisplay:10.37,2013-06-13 05:41:00,
2013-06-12 22:46:00,52.2,39.6,29.97,NW,323,2.3,2.3,62,0.00,BKN,,0.00,WeatherDisplay:10.37,2013-06-13 05:46:00,
2013-06-12 22:51:00,52.2,40.0,29.96,NW,323,0.0,0.1,63,0.00,BKN,,0.00,WeatherDisplay:10.37,2013-06-13 05:51:00,
2013-06-12 22:56:00,52.2,40.0,29.97,NW,323,0.0,0.0,63,0.00,BKN,,0.00,WeatherDisplay:10.37,2013-06-13 05:56:00,
2013-06-12 23:01:00,52.2,40.0,29.97,NW,323,0.0,0.0,63,0.00,CLR,,0.00,WeatherDisplay:10.37,2013-06-13 06:01:00,
2013-06-12 23:06:00,52.1,39.9,29.98,NW,323,0.0,0.0,63,0.00,CLR,,0.00,WeatherDisplay:10.37,2013-06-13 06:06:00,
2013-06-12 23:11:00,52.1,39.5,29.99,NW,323,0.0,0.0,62,0.00,CLR,,0.00,WeatherDisplay:10.37,2013-06-13 06:11:00,
2013-06-12 23:16:00,52.0,40.2,29.99,NW,323,0.0,0.0,64,0.00,CLR,,0.00,WeatherDisplay:10.37,2013-06-13 06:16:00,
2013-06-12 23:21:00,51.9,39.3,29.98,NW,323,0.0,0.0,62,0.00,CLR,,0.00,WeatherDisplay:10.37,2013-06-13 06:21:00,
2013-06-12 23:26:00,51.8,38.8,29.99,NW,323,0.0,0.0,61,0.00,CLR,,0.00,WeatherDisplay:10.37,2013-06-13 06:26:00,
2013-06-12 23:31:00,51.8,38.8,29.99,NW,323,0.0,0.0,61,0.00,CLR,,0.00,WeatherDisplay:10.37,2013-06-13 06:31:00,
2013-06-12 23:36:00,51.7,38.3,29.99,NW,323,0.0,0.0,60,0.00,CLR,,0.00,WeatherDisplay:10.37,2013-06-13 06:36:00,
2013-06-12 23:41:00,51.5,38.1,29.98,NW,323,0.0,0.0,60,0.00,CLR,,0.00,WeatherDisplay:10.37,2013-06-13 06:41:00,
2013-06-12 23:46:00,51.5,38.1,29.98,NW,323,0.0,0.0,60,0.00,CLR,,0.00,WeatherDisplay:10.37,2013-06-13 06:46:00,
2013-06-12 23:51:00,51.5,38.1,29.99,NW,323,3.5,3.5,60,0.00,CLR,,0.00,WeatherDisplay:10.37,2013-06-13 06:51:00,
2013-06-12 23:57:00,51.5,38.9,29.98,NW,323,2.3,0.0,62,0.00,CLR,,0.00,WeatherDisplay:10.37,2013-06-13 06:57:00,